Flag for Belgium Weather past 2 weeks in Charleroi, Belgium

Now
75 °F

Sunny.


Feels Like: 78 °F
Forecast: 58 / 76 °F
Wind: 3 mph from Southeast

Location: Charleroi / Gosselies

Current Time: Aug 3, 2015 at 10:02:51 PM

Latest Report: Aug 3, 2015 at 9:20 PM


Visibility: 10 mi

Pressure: 29.92 "Hg

Humidity: 50%

Dew point: 55 °F

Location of CharleroiLocation

Historic Weather in Charleroi — Graph

°F

Charleroi temperature yesterday

Maximum temperature yesterday: 79 °F (at 4:50 PM)
Minimum temperature yesterday: 50 °F (at 6:20 AM)
Average temperature yesterday: 67 °F

Past Weeks' High & Low Weather Summary

 TemperatureHumidityPressure
High88 °F (Aug 3, 2:50 PM)100% (Jul 25, 7:20 AM)30.15 "Hg (Jul 25, 7:20 AM)
Low46 °F (Jul 31, 2:20 AM)24% (Aug 3, 4:20 PM)29.53 "Hg (Jul 25, 5:20 AM)
Average63 °F70%29.93 "Hg
* Reported Jul 19 8:20 PM — Aug 3 8:50 PM, Charleroi, Weather by CustomWeather, © 2015

Note: Actual official high and low records may vary slightly from our data, if they occured in-between our weather recording intervals... More about our weather records

Advertising

Charleroi weather history for previous 24 hours

 ConditionsComfort  
Time TempWeatherWind HumidityBarometerVisibility
8:50 PM
Mon, Aug 3
81 °FSunny.3 mph37%29.92 "Hg10 mi
8:20 PM84 °FPassing clouds.5 mph33%29.92 "HgN/A
7:50 PM84 °FSunny.6 mph33%29.92 "Hg10 mi
7:20 PM86 °FSunny.8 mph31%29.92 "Hg10 mi
6:50 PM86 °FPassing clouds.6 mph29%29.92 "HgN/A
6:20 PM86 °FPassing clouds.10 mph29%29.92 "HgN/A
5:50 PM88 °FPassing clouds.9 mph25%29.92 "HgN/A
5:20 PM88 °FSunny.10 mph25%29.95 "Hg10 mi
4:50 PM86 °FPassing clouds.12 mph24%29.95 "HgN/A
4:20 PM88 °FPassing clouds.13 mph24%29.95 "HgN/A
3:50 PM88 °FPassing clouds.13 mph25%29.95 "HgN/A
3:20 PM88 °FSunny.16 mph25%29.95 "Hg10 mi
2:50 PM88 °FPassing clouds.14 mph27%29.95 "HgN/A
2:20 PM86 °FPassing clouds.17 mph29%29.98 "HgN/A
1:50 PM86 °FPassing clouds.14 mph29%29.98 "HgN/A
1:20 PM86 °FSunny.14 mph31%29.98 "Hg10 mi
12:50 PM84 °FPassing clouds.13 mph35%29.98 "HgN/A
12:20 PM82 °FPassing clouds.13 mph40%29.98 "HgN/A
11:50 AM82 °FPassing clouds.12 mph40%29.98 "HgN/A
11:20 AM81 °FSunny.13 mph42%29.98 "Hg10 mi
10:50 AM79 °FPassing clouds.10 mph48%29.98 "HgN/A
10:20 AM79 °FPassing clouds.13 mph45%29.98 "HgN/A
9:50 AM77 °FSunny.12 mph47%29.98 "Hg10 mi
9:20 AM75 °FPassing clouds.10 mph47%29.98 "HgN/A
8:50 AM73 °FPassing clouds.10 mph53%29.95 "HgN/A
8:20 AM72 °FPassing clouds.9 mph53%29.95 "HgN/A
7:50 AM70 °FPassing clouds.8 mph57%29.95 "HgN/A
7:20 AM70 °FPassing clouds.7 mph53%29.95 "HgN/A
6:50 AM68 °FPassing clouds.8 mph56%29.95 "HgN/A
6:20 AM68 °FClear.7 mph56%29.95 "Hg10 mi
5:50 AM66 °FClear.6 mph60%29.95 "Hg10 mi
5:20 AM64 °FClear.6 mph60%29.95 "Hg10 mi
4:50 AM64 °FClear.5 mph60%29.95 "Hg10 mi
4:20 AM64 °FClear.6 mph60%29.95 "Hg10 mi
3:50 AM63 °FClear.6 mph68%29.98 "Hg10 mi
3:20 AM64 °FClear.5 mph64%29.98 "Hg10 mi
2:50 AM64 °FClear.3 mph68%29.98 "Hg10 mi
2:20 AM64 °FClear.5 mph68%29.98 "Hg10 mi
1:50 AM66 °FClear.5 mph64%30.01 "Hg10 mi
1:20 AM66 °FPassing clouds.6 mph64%30.01 "HgN/A
12:50 AM68 °FClear.6 mph56%30.01 "Hg10 mi
12:20 AM68 °FClear.6 mph60%30.01 "Hg10 mi
11:50 PM
Sun, Aug 2
68 °FClear.5 mph60%30.01 "Hg10 mi
11:20 PM70 °FClear.5 mph57%30.01 "Hg10 mi
10:50 PM68 °FPassing clouds.5 mph53%30.01 "HgN/A
10:20 PM72 °FPassing clouds.3 mph50%30.01 "HgN/A
Weather by CustomWeather, © 2015

See weather overviewHow to use our weather pages